User: anonymous   Login
Location: Unspecified
(33.6620°N, 0.0000°E)
Time: 21:03:53
(UTC+00:00)
Language:

Okean 2 Rocket - Orbit

View from above orbital plane
View from above orbital plane
View from above satellite
View from above satellite

Ground track
Ground track

The orbit is defined by the following mean orbital elements,

1 20511U          26087.81032884 +.00000000 +00000-0 +59038-4 0 00008
2 20511  82.5237 205.2213 0016940  33.5844 326.6441 14.82163657    09
Epoch (UTC): 28 March 2026 19:26:52
Eccentricity: 0.0016940
inclination: 82.5237°
perigee height: 611 km
apogee height: 634 km
right ascension of ascending node: 205.2213°
argument of perigee: 33.5844°
revolutions per day: 14.82163657
mean anomaly at epoch: 326.6441°

The dashed part of the orbit path shows where the satellite is in the earth's shadow,  

DLR